Location: Asheville, NC
(35.6000°N, 82.5500°W)
Time: 18:48:09
(UTC-04:00)

Vanguard 2 Rocket - Pass Details

Date: 17 March 2018
Orbit: 553 x 3328 km, 32.9° (Epoch: 19 June)

Event Time Altitude Azimuth Distance (km) Brightness Sun altitude
Rises 14:43:52 0° 206° (SSW) 3,781 10.7 50.2°
Reaches altitude 10° 14:49:07 10° 172° (S) 2,293 9.7 49.7°
Maximum altitude 14:50:27 11° 157° (SSE) 2,116 9.3 49.6°
Drops below altitude 10° 14:51:41 10° 141° (SE) 2,083 9.1 49.5°
Sets 14:55:33 0° 102° (ESE) 2,771 9.3 49.1°
